Galicia — ECEC — position and weather

sailwx.info

Track history (hours):
 
Tides and Currents Weather Stations Pressure Air Temp Water Temp Dewpoint Dewpoint Depression Visibility Wind Speed Wind Dir Waves Ship Positions

Galicia

Last reported at 2014-Oct-24 20:31 UTC. Time now 2014-Oct-26 01:07 UTC.
Position N 38°39' W 009°50'.

Length 149 m; draft 5.2 m.

Type: Cargo ship. MMSI: 224548000.

Date/timePositionNaut miles runAvg speedWind from/ knotsBaromVisibWave heightAir tempDewpointWater temp
2014-Oct-24 20:31N 38°39' W 009°50'18 9.4
2014-Oct-24 18:33N 38°21' W 009°45'10 9.9
2014-Oct-24 17:33N 38°12' W 009°42'10 9.7
2014-Oct-24 16:33N 38°02' W 009°39'9 9.5
2014-Oct-24 15:33N 37°53' W 009°36'10 9.6
2014-Oct-24 14:33N 37°44' W 009°33'10 9.7
2014-Oct-24 13:33N 37°34' W 009°30'10 9.7
2014-Oct-24 12:33N 37°25' W 009°28'10 9.7
2014-Oct-24 11:33N 37°15' W 009°25'10 9.6
2014-Oct-24 10:33N 37°06' W 009°23'10 9.6
2014-Oct-24 09:33N 36°56' W 009°20'22 8.8
2014-Oct-24 07:06N 36°42' W 008°59'5 9.9
2014-Oct-24 06:33N 36°41' W 008°53'10 9.9
2014-Oct-24 05:33N 36°38' W 008°41'10 9.9
2014-Oct-24 04:33N 36°35' W 008°30'10 9.9
2014-Oct-24 03:33N 36°31' W 008°18'135 9.6
2014-Oct-23 13:32N 35°58' W 005°35'9 9.0
2014-Oct-23 12:31N 36°00' W 005°25'8 8.3
2014-Oct-23 11:33N 36°03' W 005°16'219 9.9
2014-Oct-22 13:29N 37°17' W 000°58'1011.0
2014-Oct-22 12:33N 37°24' W 000°49'1111.1
2014-Oct-22 11:32N 37°31' W 000°38'1110.9
2014-Oct-22 10:33N 37°40' W 000°29'1211.2
2014-Oct-22 09:31N 37°49' W 000°21'1415.2
2014-Oct-22 08:33N 38°01' W 000°11'16516.3
2014-Oct-21 22:25N 40°25' E 001°34'38 1.4
2014-Oct-20 19:17N 39°50' E 001°14'14311.1
2014-Oct-20 06:27N 37°47' W 000°18'1314.5
2014-Oct-20 05:33N 37°36' W 000°28'1514.5
2014-Oct-20 04:31N 37°26' W 000°41'1414.3
2014-Oct-20 03:33N 37°17' W 000°54'22113.8
2014-Oct-19 11:33N 36°00' W 005°12'1111.3
2014-Oct-19 10:33N 35°58' W 005°26'7611.9
2014-Oct-19 04:08N 35°20' W 006°46'1415.5
2014-Oct-19 03:15N 35°11' W 006°59'1115.7
2014-Oct-19 02:33N 35°03' W 007°09'1616.1
2014-Oct-19 01:33N 34°53' W 007°24'1616.0
2014-Oct-19 00:33N 34°43' W 007°39'  
Track history (hours):
 
Tides and Currents Weather Stations Pressure Air Temp Water Temp Dewpoint Dewpoint Depression Visibility Wind Speed Wind Dir Waves Ship Positions

Galicia

Last reported at 2014-Oct-24 20:31 UTC. Time now 2014-Oct-26 01:07 UTC.
Position N 38°39' W 009°50'.

Length 149 m; draft 5.2 m.

Type: Cargo ship. MMSI: 224548000.

Date/timePositionNaut miles runAvg speedWind from/ knotsBaromVisibWave heightAir tempDewpointWater temp
2014-Oct-24 20:31N 38°39' W 009°50'18 9.4
2014-Oct-24 18:33N 38°21' W 009°45'10 9.9
2014-Oct-24 17:33N 38°12' W 009°42'10 9.7
2014-Oct-24 16:33N 38°02' W 009°39'9 9.5
2014-Oct-24 15:33N 37°53' W 009°36'10 9.6
2014-Oct-24 14:33N 37°44' W 009°33'10 9.7
2014-Oct-24 13:33N 37°34' W 009°30'10 9.7
2014-Oct-24 12:33N 37°25' W 009°28'10 9.7
2014-Oct-24 11:33N 37°15' W 009°25'10 9.6
2014-Oct-24 10:33N 37°06' W 009°23'10 9.6
2014-Oct-24 09:33N 36°56' W 009°20'22 8.8
2014-Oct-24 07:06N 36°42' W 008°59'5 9.9
2014-Oct-24 06:33N 36°41' W 008°53'10 9.9
2014-Oct-24 05:33N 36°38' W 008°41'10 9.9
2014-Oct-24 04:33N 36°35' W 008°30'10 9.9
2014-Oct-24 03:33N 36°31' W 008°18'135 9.6
2014-Oct-23 13:32N 35°58' W 005°35'9 9.0
2014-Oct-23 12:31N 36°00' W 005°25'8 8.3
2014-Oct-23 11:33N 36°03' W 005°16'219 9.9
2014-Oct-22 13:29N 37°17' W 000°58'1011.0
2014-Oct-22 12:33N 37°24' W 000°49'1111.1
2014-Oct-22 11:32N 37°31' W 000°38'1110.9
2014-Oct-22 10:33N 37°40' W 000°29'1211.2
2014-Oct-22 09:31N 37°49' W 000°21'1415.2
2014-Oct-22 08:33N 38°01' W 000°11'16516.3
2014-Oct-21 22:25N 40°25' E 001°34'38 1.4
2014-Oct-20 19:17N 39°50' E 001°14'14311.1
2014-Oct-20 06:27N 37°47' W 000°18'1314.5
2014-Oct-20 05:33N 37°36' W 000°28'1514.5
2014-Oct-20 04:31N 37°26' W 000°41'1414.3
2014-Oct-20 03:33N 37°17' W 000°54'22113.8
2014-Oct-19 11:33N 36°00' W 005°12'1111.3
2014-Oct-19 10:33N 35°58' W 005°26'7611.9
2014-Oct-19 04:08N 35°20' W 006°46'1415.5
2014-Oct-19 03:15N 35°11' W 006°59'1115.7
2014-Oct-19 02:33N 35°03' W 007°09'1616.1
2014-Oct-19 01:33N 34°53' W 007°24'1616.0
2014-Oct-19 00:33N 34°43' W 007°39'  

Dump ship's entire track history